When you browse on this site, cookies collect data to enhance your experience and personalize the content and advertising you see.
Visit our Privacy Policy to learn more. By continuing to use the site, you agree to this use of cookies and data.
  • In Sweden
  • List of Countries
  • For 7 days
  • Water Temperature
  • Weather Map
  • Weather Widgets
  • user-avatar
    Login

    Hourly Weather Agvali

    Today, 20 November, Wednesday

    Time Temperature Precipitation Wind Pressure Humidity
    00:00 +1°C° 0 mm 1 mps 600 mmHg 27%
    01:00 +1°C° 0 mm 1 mps 600 mmHg 27%
    02:00 +1°C° 0 mm 1 mps 599 mmHg 26%
    03:00 +1°C° 0 mm 1 mps 599 mmHg 26%
    04:00 +1°C° 0 mm 1 mps 599 mmHg 26%
    05:00 0°C° 0 mm 1 mps 599 mmHg 26%
    06:00 0°C° 0 mm 1 mps 599 mmHg 26%
    07:00 +1°C° 0 mm 1 mps 600 mmHg 25%
    08:00 +3°C° 0 mm 1 mps 600 mmHg 24%
    09:00 +4°C° 0 mm 1 mps 601 mmHg 23%
    10:00 +5°C° 0 mm 1 mps 601 mmHg 23%
    11:00 +5°C° 0 mm 1 mps 601 mmHg 23%
    12:00 +6°C° 0 mm 1 mps 601 mmHg 24%
    13:00 +6°C° 0 mm 1 mps 601 mmHg 31%
    14:00 +5°C° 0 mm 1 mps 601 mmHg 38%
    15:00 +4°C° 0 mm 1 mps 600 mmHg 45%
    16:00 +2°C° 0 mm 1 mps 600 mmHg 55%
    17:00 0°C° 0 mm 1 mps 599 mmHg 64%
    18:00 -3°C° 0 mm 0 mps 598 mmHg 73%
    19:00 -3°C° 0 mm 0 mps 598 mmHg 74%
    20:00 -3°C° 0 mm 0 mps 599 mmHg 75%
    21:00 -3°C° 0 mm 0 mps 599 mmHg 76%
    22:00 -3°C° 0 mm 0 mps 599 mmHg 77%
    23:00 -3°C° 0 mm 1 mps 598 mmHg 78%

    Tomorrow, 21 November, Thursday

    Time Temperature Precipitation Wind Pressure Humidity
    00:00 -3°C° 0 mm 1 mps 598 mmHg 79%
    01:00 -3°C° 0 mm 1 mps 598 mmHg 82%
    02:00 -3°C° 0 mm 1 mps 598 mmHg 84%
    03:00 -5°C° 0 mm 0 mps 598 mmHg 87%
    04:00 -5°C° 0.1 mm 0 mps 598 mmHg 88%
    05:00 -5°C° 0.1 mm 0 mps 598 mmHg 89%
    06:00 -5°C° 0.1 mm 0 mps 598 mmHg 90%
    07:00 -4°C° 0.1 mm 1 mps 598 mmHg 88%
    08:00 -4°C° 0.1 mm 1 mps 599 mmHg 86%
    09:00 -3°C° 0.1 mm 1 mps 599 mmHg 83%
    10:00 -3°C° 0.1 mm 1 mps 599 mmHg 82%
    11:00 -3°C° 0.1 mm 1 mps 599 mmHg 81%
    12:00 -4°C° 0.1 mm 2 mps 599 mmHg 80%
    13:00 -5°C° 0.3 mm 2 mps 599 mmHg 82%
    14:00 -5°C° 0.3 mm 2 mps 599 mmHg 85%
    15:00 -5°C° 0.3 mm 2 mps 599 mmHg 87%
    16:00 -6°C° 0.3 mm 2 mps 599 mmHg 89%
    17:00 -4°C° 0.3 mm 1 mps 599 mmHg 91%
    18:00 -6°C° 0.3 mm 1 mps 599 mmHg 92%
    19:00 -6°C° 0.2 mm 1 mps 599 mmHg 92%
    20:00 -6°C° 0.2 mm 1 mps 599 mmHg 92%
    21:00 -6°C° 0.2 mm 1 mps 600 mmHg 92%
    22:00 -7°C° 0.1 mm 1 mps 600 mmHg 92%
    23:00 -7°C° 0.1 mm 1 mps 600 mmHg 92%

    Day after tomorrow, 22 November, Friday

    Time Temperature Precipitation Wind Pressure Humidity
    00:00 -7°C° 0.1 mm 1 mps 600 mmHg 93%
    01:00 -7°C° 0.1 mm 1 mps 600 mmHg 93%
    02:00 -7°C° 0.1 mm 1 mps 600 mmHg 93%
    03:00 -8°C° 0.1 mm 1 mps 600 mmHg 94%
    04:00 -8°C° 0 mm 1 mps 600 mmHg 94%
    05:00 -8°C° 0 mm 1 mps 600 mmHg 94%
    06:00 -8°C° 0 mm 1 mps 600 mmHg 94%
    07:00 -8°C° 0 mm 1 mps 601 mmHg 90%
    08:00 -7°C° 0 mm 1 mps 601 mmHg 86%
    09:00 -7°C° 0 mm 1 mps 602 mmHg 82%
    10:00 -6°C° 0 mm 1 mps 602 mmHg 78%
    11:00 -4°C° 0 mm 1 mps 602 mmHg 75%
    12:00 -3°C° 0 mm 1 mps 603 mmHg 71%
    13:00 -3°C° 0 mm 1 mps 603 mmHg 74%
    14:00 -3°C° 0 mm 1 mps 602 mmHg 76%
    15:00 -4°C° 0 mm 1 mps 602 mmHg 79%
    16:00 -6°C° 0 mm 1 mps 602 mmHg 84%
    17:00 -6°C° 0 mm 1 mps 602 mmHg 88%
    18:00 -7°C° 0 mm 1 mps 601 mmHg 93%
    19:00 -8°C° 0 mm 1 mps 601 mmHg 91%
    20:00 -8°C° 0 mm 1 mps 601 mmHg 90%
    21:00 -8°C° 0 mm 1 mps 601 mmHg 88%
    22:00 -8°C° 0 mm 1 mps 601 mmHg 85%
    23:00 -8°C° 0 mm 1 mps 601 mmHg 82%

    23 November, Saturday

    Time Temperature Precipitation Wind Pressure Humidity
    00:00 -8°C° 0 mm 1 mps 601 mmHg 79%
    01:00 -8°C° 0 mm 1 mps 601 mmHg 75%
    02:00 -8°C° 0 mm 1 mps 600 mmHg 72%
    03:00 -8°C° 0 mm 1 mps 600 mmHg 69%
    04:00 -8°C° 0 mm 1 mps 600 mmHg 65%
    05:00 -8°C° 0 mm 1 mps 600 mmHg 62%
    06:00 -8°C° 0 mm 1 mps 600 mmHg 58%
    07:00 -6°C° 0 mm 1 mps 601 mmHg 54%
    08:00 -4°C° 0 mm 1 mps 602 mmHg 51%
    09:00 -3°C° 0 mm 1 mps 602 mmHg 47%
    10:00 -2°C° 0 mm 1 mps 603 mmHg 45%
    11:00 -1°C° 0 mm 1 mps 603 mmHg 42%
    12:00 +1°C° 0 mm 1 mps 603 mmHg 39%
    13:00 0°C° 0 mm 1 mps 603 mmHg 44%
    14:00 0°C° 0 mm 1 mps 603 mmHg 49%
    15:00 0°C° 0 mm 1 mps 602 mmHg 53%
    16:00 -2°C° 0 mm 1 mps 602 mmHg 56%
    17:00 -3°C° 0 mm 1 mps 601 mmHg 59%
    18:00 -4°C° 0 mm 1 mps 600 mmHg 62%
    19:00 -4°C° 0 mm 1 mps 600 mmHg 60%
    20:00 -4°C° 0 mm 1 mps 600 mmHg 57%
    21:00 -4°C° 0 mm 1 mps 600 mmHg 54%
    22:00 -6°C° 0 mm 1 mps 600 mmHg 52%
    23:00 -6°C° 0 mm 1 mps 600 mmHg 50%

    24 November, Sunday

    Time Temperature Precipitation Wind Pressure Humidity
    00:00 -6°C° 0 mm 1 mps 600 mmHg 48%
    01:00 -6°C° 0 mm 1 mps 600 mmHg 46%
    02:00 -6°C° 0 mm 1 mps 599 mmHg 44%
    03:00 -6°C° 0 mm 1 mps 599 mmHg 42%
    04:00 -6°C° 0 mm 1 mps 599 mmHg 41%
    05:00 -6°C° 0 mm 1 mps 599 mmHg 39%
    06:00 -6°C° 0 mm 1 mps 599 mmHg 37%
    07:00 -4°C° 0 mm 1 mps 599 mmHg 37%
    08:00 -3°C° 0 mm 1 mps 600 mmHg 37%
    09:00 -2°C° 0 mm 1 mps 601 mmHg 37%
    10:00 -1°C° 0 mm 1 mps 601 mmHg 36%
    11:00 0°C° 0 mm 1 mps 601 mmHg 35%
    12:00 +1°C° 0 mm 1 mps 601 mmHg 34%
    13:00 +1°C° 0 mm 1 mps 601 mmHg 38%
    14:00 0°C° 0 mm 1 mps 600 mmHg 43%
    15:00 0°C° 0 mm 1 mps 600 mmHg 47%
    16:00 -1°C° 0 mm 1 mps 600 mmHg 49%
    17:00 -2°C° 0 mm 1 mps 599 mmHg 52%
    18:00 -4°C° 0 mm 1 mps 599 mmHg 54%
    19:00 -4°C° 0 mm 1 mps 598 mmHg 51%
    20:00 -6°C° 0 mm 2 mps 598 mmHg 49%
    21:00 -6°C° 0 mm 2 mps 598 mmHg 47%
    22:00 -6°C° 0 mm 2 mps 598 mmHg 46%
    23:00 -7°C° 0 mm 2 mps 598 mmHg 46%

    25 November, Monday

    Time Temperature Precipitation Wind Pressure Humidity
    00:00 -7°C° 0 mm 2 mps 597 mmHg 45%
    01:00 -7°C° 0 mm 2 mps 597 mmHg 45%
    02:00 -7°C° 0 mm 2 mps 597 mmHg 45%
    03:00 -7°C° 0 mm 2 mps 597 mmHg 44%
    04:00 -7°C° 0 mm 2 mps 597 mmHg 43%
    05:00 -7°C° 0 mm 2 mps 596 mmHg 41%
    06:00 -7°C° 0 mm 2 mps 596 mmHg 40%
    07:00 -6°C° 0 mm 2 mps 597 mmHg 38%
    08:00 -3°C° 0 mm 1 mps 598 mmHg 36%
    09:00 -1°C° 0 mm 1 mps 598 mmHg 34%
    10:00 0°C° 0 mm 1 mps 599 mmHg 32%
    11:00 +1°C° 0 mm 1 mps 599 mmHg 30%
    12:00 +2°C° 0 mm 1 mps 599 mmHg 28%
    13:00 +2°C° 0 mm 1 mps 599 mmHg 32%
    14:00 +1°C° 0 mm 0 mps 599 mmHg 36%
    15:00 +1°C° 0 mm 0 mps 598 mmHg 40%
    16:00 0°C° 0 mm 1 mps 598 mmHg 41%
    17:00 -1°C° 0 mm 1 mps 597 mmHg 42%
    18:00 -2°C° 0 mm 1 mps 597 mmHg 43%
    19:00 -5°C° 0 mm 2 mps 597 mmHg 42%
    20:00 -5°C° 0 mm 2 mps 597 mmHg 40%
    21:00 -5°C° 0 mm 2 mps 596 mmHg 39%
    22:00 -5°C° 0 mm 2 mps 596 mmHg 38%
    23:00 -5°C° 0 mm 2 mps 596 mmHg 37%
    Show more